Location: Luz Observatory
(34.5000°N, 117.2833°W)
Time: 23:53:25
(UTC-07:00)

Hubble Space Telescope - Visible Passes

Search period start: 23 July 2016 00:00
Search period end: 02 August 2016 00:00
Orbit: 539 x 543 km, 28.5° (Epoch: 23 July)

Date Brightness Start Highest point End Pass type
(mag) Time Alt. Az. Time Alt. Az. Time Alt. Az.
30 Jul 3.2 04:59:40 10° SSE 05:00:28 10° SSE 05:01:16 10° SE visible
31 Jul 3.0 04:48:42 10° S 04:50:37 13° SSE 04:52:38 10° SE visible
01 Aug 2.7 04:39:29 14° S 04:40:47 16° SSE 04:43:23 10° ESE visible
